Location: Lake Arresoe
(56.0000°N, 12.5000°E)
Time: 06:28:38
(UTC+02:00)

Okean 3 - Pass Details

Date: 17 August 2020
Orbit: 577 x 600 km, 82.5° (Epoch: 21 September)

Event Time Altitude Azimuth Distance (km) Brightness Sun altitude
Rises 00:08:04 0° 336° (NNW) 2,859 8.6 -19.3°
Reaches altitude 10° 00:11:05 10° 313° (NW) 1,953 7.0 -19.4°
Maximum altitude 00:13:32 15° 278° (W) 1,644 6.0 -19.5°
Drops below altitude 10° 00:15:58 10° 244° (WSW) 1,947 6.0 -19.6°
Enters shadow 00:16:31 - 238° (WSW) 2,083 6.1 -19.6°
